Location: Peterborough
(44.3091°N, 78.3197°W)
Time: 10:04:03
(UTC-04:00)

A-11 Canister half - Pass Details

Date: 21 September 2024
Orbit: 1515 x 1684 km, 47.2° (Epoch: 02 October)

Event Time Altitude Azimuth Distance (km) Brightness Sun altitude
Rises 00:39:31 0° 294° (WNW) 4,671 11.9 -44.8°
Reaches altitude 10° 00:42:41 10° 289° (WNW) 3,680 11.2 -44.9°
Enters shadow 00:45:22 21° 281° (W) 2,902 10.5 -44.9°
